ARG1345 SAEZ-SPJC

Flight info

Callsign ARG1345
Flight time 4h 15m
Altitude 32000
Route BIVAM1J BIVAM UW8 ERE UT680 VULEK/N0469F340 UT680 TUC UL550 SCO UT224 ASOXI
Aircraft B738/M-SDE2E3FGHIRWXY/LB1

Departure

Time 2026-05-04 22:49
Airport Ezeiza International Airport - Ministro Pistarini (SAEZ)

Arrival

Time 2026-05-05 03:04
Airport Jorge Chávez International Airport (SPJC)
Time Latitude Longitude Altitude Speed Heading
2026-05-04 22:09 -34.81096 -58.53681 74 ft 0 kts 253°
2026-05-04 22:35 -34.81093 -58.53671 74 ft 4 kts 252°
2026-05-04 22:35 -34.81084 -58.53641 64 ft 4 kts 246°
2026-05-04 22:36 -34.81072 -58.53611 67 ft 4 kts 237°
2026-05-04 22:36 -34.81055 -58.53587 64 ft 4 kts 214°
2026-05-04 22:36 -34.81034 -58.53578 71 ft 2 kts 162°
2026-05-04 22:36 -34.81033 -58.53578 71 ft 0 kts 161°
2026-05-04 22:40 -34.81048 -58.53572 65 ft 5 kts 161°
2026-05-04 22:40 -34.81108 -58.53552 75 ft 11 kts 179°
2026-05-04 22:40 -34.81185 -58.53584 74 ft 12 kts 197°
2026-05-04 22:41 -34.81265 -58.53587 68 ft 11 kts 179°
2026-05-04 22:41 -34.81342 -58.53589 70 ft 11 kts 183°
2026-05-04 22:41 -34.81417 -58.53606 70 ft 11 kts 197°
2026-05-04 22:41 -34.81487 -58.53636 74 ft 11 kts 205°
2026-05-04 22:42 -34.81554 -58.53681 74 ft 11 kts 213°
2026-05-04 22:42 -34.81611 -58.53747 69 ft 12 kts 225°
2026-05-04 22:42 -34.81671 -58.53816 69 ft 12 kts 222°
2026-05-04 22:42 -34.81722 -58.53891 74 ft 11 kts 242°
2026-05-04 22:43 -34.81760 -58.53974 71 ft 11 kts 238°
2026-05-04 22:43 -34.81791 -58.54058 68 ft 11 kts 258°
2026-05-04 22:43 -34.81793 -58.54120 65 ft 12 kts 278°
2026-05-04 22:43 -34.81779 -58.54225 72 ft 14 kts 270°
2026-05-04 22:44 -34.81760 -58.54390 74 ft 16 kts 278°
2026-05-04 22:44 -34.81751 -58.54486 72 ft 17 kts 273°
2026-05-04 22:44 -34.81772 -58.54635 71 ft 18 kts 255°
2026-05-04 22:44 -34.81775 -58.54784 74 ft 17 kts 282°
2026-05-04 22:45 -34.81750 -58.54923 69 ft 17 kts 282°
2026-05-04 22:45 -34.81714 -58.55115 72 ft 11 kts 282°
2026-05-04 22:45 -34.81699 -58.55202 73 ft 10 kts 282°
2026-05-04 22:46 -34.81699 -58.55287 73 ft 10 kts 246°
2026-05-04 22:46 -34.81746 -58.55337 66 ft 0 kts 197°
2026-05-04 22:47 -34.81761 -58.55342 71 ft 5 kts 192°
2026-05-04 22:47 -34.81813 -58.55333 72 ft 10 kts 153°
2026-05-04 22:47 -34.81881 -58.55310 69 ft 6 kts 187°
2026-05-04 22:48 -34.81899 -58.55310 72 ft 0 kts 168°
2026-05-04 22:48 -34.81915 -58.55287 77 ft 9 kts 110°
2026-05-04 22:48 -34.81955 -58.55073 75 ft 57 kts 102°
2026-05-04 22:48 -34.82093 -58.54313 82 ft 124 kts 102°
2026-05-04 22:49 -34.82307 -58.53044 107 ft 177 kts 99°
2026-05-04 22:49 -34.82549 -58.51509 664 ft 188 kts 100°
2026-05-04 22:49 -34.82816 -58.49939 1436 ft 194 kts 102°
2026-05-04 22:49 -34.83457 -58.48468 2021 ft 211 kts 133°
2026-05-04 22:50 -34.84567 -58.47122 2156 ft 237 kts 129°
2026-05-04 22:50 -34.85551 -58.45446 2536 ft 249 kts 126°
2026-05-04 22:50 -34.86623 -58.43736 3022 ft 259 kts 127°
2026-05-04 22:50 -34.87701 -58.41867 3321 ft 278 kts 123°
2026-05-04 22:51 -34.88973 -58.40099 3933 ft 284 kts 149°
2026-05-04 22:51 -34.90787 -58.39242 4749 ft 280 kts 175°
2026-05-04 22:51 -34.92717 -58.39246 5502 ft 277 kts 195°
2026-05-04 22:51 -34.94500 -58.40025 6326 ft 270 kts 216°
2026-05-04 22:52 -34.95894 -58.41509 7031 ft 266 kts 234°
2026-05-04 22:52 -34.96919 -58.43380 7739 ft 266 kts 248°
2026-05-04 22:52 -34.97274 -58.45561 8430 ft 265 kts 276°
2026-05-04 22:52 -34.96748 -58.47705 9151 ft 269 kts 299°
2026-05-04 22:53 -34.95539 -58.49464 9858 ft 276 kts 319°
2026-05-04 22:53 -34.93821 -58.50630 10302 ft 293 kts 333°
2026-05-04 22:53 -34.91847 -58.51594 10459 ft 317 kts 335°
2026-05-04 22:53 -34.89706 -58.52560 10614 ft 339 kts 336°
2026-05-04 22:54 -34.87426 -58.53571 10758 ft 359 kts 336°
2026-05-04 22:54 -34.85021 -58.54642 10946 ft 375 kts 336°
2026-05-04 22:54 -34.82575 -58.55737 11340 ft 383 kts 336°
2026-05-04 22:54 -34.80057 -58.56872 11896 ft 386 kts 335°
2026-05-04 22:55 -34.77529 -58.58018 12446 ft 390 kts 335°
2026-05-04 22:55 -34.74965 -58.59187 12922 ft 396 kts 334°
2026-05-04 22:55 -34.72372 -58.60373 13426 ft 400 kts 334°
2026-05-04 22:55 -34.69751 -58.61573 13940 ft 403 kts 334°
2026-05-04 22:56 -34.67116 -58.62779 14453 ft 405 kts 334°
2026-05-04 22:56 -34.64475 -58.63987 14983 ft 407 kts 334°
2026-05-04 22:56 -34.61817 -58.65203 15490 ft 409 kts 333°
2026-05-04 22:56 -34.59182 -58.66408 15973 ft 411 kts 333°
2026-05-04 22:57 -34.56494 -58.67636 16460 ft 413 kts 333°
2026-05-04 22:57 -34.53793 -58.68870 16934 ft 416 kts 333°
2026-05-04 22:57 -34.51076 -58.70110 17396 ft 418 kts 333°
2026-05-04 22:57 -34.48347 -58.71354 17847 ft 421 kts 333°
2026-05-04 22:58 -34.45595 -58.72608 18281 ft 423 kts 333°
2026-05-04 22:58 -34.42834 -58.73865 18662 ft 425 kts 333°
2026-05-04 22:58 -34.40058 -58.75128 19053 ft 426 kts 333°
2026-05-04 22:58 -34.37271 -58.76394 19420 ft 428 kts 333°
2026-05-04 22:59 -34.34472 -58.77666 19768 ft 431 kts 333°
2026-05-04 22:59 -34.31656 -58.78945 20128 ft 433 kts 333°
2026-05-04 22:59 -34.28830 -58.80228 20506 ft 434 kts 333°
2026-05-04 22:59 -34.25995 -58.81512 20873 ft 436 kts 333°
2026-05-04 23:00 -34.23175 -58.82790 21219 ft 438 kts 333°
2026-05-04 23:00 -34.20308 -58.84088 21562 ft 440 kts 333°
2026-05-04 23:00 -34.17434 -58.85388 21876 ft 442 kts 333°
2026-05-04 23:00 -34.14547 -58.86693 22218 ft 444 kts 333°
2026-05-04 23:01 -34.11646 -58.88004 22558 ft 445 kts 333°
2026-05-04 23:01 -34.08733 -58.89319 22893 ft 447 kts 333°
2026-05-04 23:01 -34.05819 -58.90633 23212 ft 448 kts 333°
2026-05-04 23:01 -34.02893 -58.91952 23512 ft 450 kts 333°
2026-05-04 23:02 -33.99952 -58.93277 23762 ft 452 kts 333°
2026-05-04 23:02 -33.97028 -58.94653 23996 ft 450 kts 329°
2026-05-04 23:02 -33.94320 -58.96397 24228 ft 446 kts 322°
2026-05-04 23:02 -33.91676 -58.98354 24480 ft 446 kts 322°
2026-05-04 23:03 -33.89035 -59.00337 24723 ft 448 kts 322°
2026-05-04 23:03 -33.86387 -59.02321 24961 ft 449 kts 322°
2026-05-04 23:03 -33.83723 -59.04302 25213 ft 451 kts 322°
2026-05-04 23:03 -33.81270 -59.06113 25456 ft 451 kts 322°
2026-05-04 23:04 -33.80972 -59.06332 25478 ft 452 kts 322°
2026-05-04 23:04 -33.78284 -59.08301 25690 ft 453 kts 322°
2026-05-04 23:04 -33.75572 -59.10281 25876 ft 456 kts 322°
2026-05-04 23:04 -33.72883 -59.12238 26083 ft 458 kts 322°
2026-05-04 23:05 -33.70154 -59.14221 26319 ft 459 kts 322°
2026-05-04 23:05 -33.67413 -59.16210 26562 ft 460 kts 322°
2026-05-04 23:05 -33.64670 -59.18199 26848 ft 459 kts 322°
2026-05-04 23:05 -33.61939 -59.20178 27196 ft 458 kts 322°
2026-05-04 23:06 -33.59217 -59.22148 27530 ft 456 kts 322°
2026-05-04 23:06 -33.56500 -59.24115 27829 ft 456 kts 322°
2026-05-04 23:06 -33.53782 -59.26083 28131 ft 456 kts 322°
2026-05-04 23:06 -33.51071 -59.28044 28484 ft 455 kts 322°
2026-05-04 23:07 -33.48365 -59.29999 28852 ft 453 kts 322°
2026-05-04 23:07 -33.45670 -59.31945 29208 ft 452 kts 322°
2026-05-04 23:07 -33.44630 -59.32696 29342 ft 452 kts 322°
2026-05-04 23:07 -33.42025 -59.34575 29716 ft 450 kts 322°
2026-05-04 23:08 -33.39418 -59.36454 30030 ft 449 kts 322°
2026-05-04 23:08 -33.37024 -59.38180 30242 ft 450 kts 322°
2026-05-04 23:08 -33.34344 -59.40111 30496 ft 450 kts 322°
2026-05-04 23:09 -33.31666 -59.42038 30800 ft 449 kts 322°
2026-05-04 23:09 -33.28993 -59.43959 31107 ft 447 kts 322°
2026-05-04 23:09 -33.26324 -59.45876 31380 ft 447 kts 322°
2026-05-04 23:09 -33.23660 -59.47789 31635 ft 447 kts 322°
2026-05-04 23:10 -33.20995 -59.49701 31883 ft 446 kts 322°
2026-05-04 23:10 -33.18335 -59.51608 32115 ft 446 kts 322°
2026-05-04 23:10 -33.15707 -59.53491 32357 ft 446 kts 322°
2026-05-04 23:10 -33.13045 -59.55396 32643 ft 445 kts 322°
2026-05-04 23:11 -33.10388 -59.57297 32924 ft 444 kts 322°
2026-05-04 23:11 -33.07737 -59.59191 33192 ft 443 kts 322°
2026-05-04 23:11 -33.05094 -59.61079 33459 ft 442 kts 322°
2026-05-04 23:11 -33.02459 -59.62960 33739 ft 441 kts 322°
2026-05-04 23:12 -32.99828 -59.64836 33918 ft 441 kts 322°
2026-05-04 23:12 -32.97187 -59.66722 33898 ft 444 kts 322°
2026-05-04 23:12 -32.91895 -59.70491 33896 ft 442 kts 322°
2026-05-04 23:13 -32.86634 -59.74228 33906 ft 438 kts 322°
2026-05-04 23:13 -32.81442 -59.77915 33884 ft 436 kts 322°
2026-05-04 23:14 -32.76240 -59.81605 33901 ft 435 kts 322°
2026-05-04 23:14 -32.71046 -59.85285 33912 ft 434 kts 322°
2026-05-04 23:15 -32.65837 -59.88971 33922 ft 436 kts 322°
2026-05-04 23:15 -32.60646 -59.92638 33910 ft 438 kts 322°
2026-05-04 23:16 -32.55398 -59.96340 33910 ft 439 kts 322°
2026-05-04 23:16 -32.50130 -60.00055 33909 ft 441 kts 322°
2026-05-04 23:17 -32.44848 -60.03775 33907 ft 442 kts 322°
2026-05-04 23:17 -32.39556 -60.07496 33910 ft 442 kts 322°
2026-05-04 23:18 -32.34270 -60.11208 33904 ft 442 kts 322°
2026-05-04 23:18 -32.28983 -60.14916 33905 ft 441 kts 322°
2026-05-04 23:19 -32.23738 -60.18589 33904 ft 440 kts 322°
2026-05-04 23:19 -32.18472 -60.22273 33895 ft 439 kts 322°
2026-05-04 23:20 -32.13219 -60.25942 33906 ft 438 kts 322°
2026-05-04 23:20 -32.07981 -60.29597 33904 ft 437 kts 322°
2026-05-04 23:21 -32.02749 -60.33242 33879 ft 436 kts 322°
2026-05-04 23:21 -31.97529 -60.36874 33901 ft 435 kts 322°
2026-05-04 23:22 -31.92346 -60.40477 33909 ft 435 kts 322°
2026-05-04 23:22 -31.87127 -60.44100 33913 ft 436 kts 322°
2026-05-04 23:23 -31.81890 -60.47731 33905 ft 437 kts 322°
2026-05-04 23:23 -31.76724 -60.51472 33914 ft 435 kts 320°
2026-05-04 23:24 -31.71669 -60.55381 33912 ft 435 kts 319°
2026-05-04 23:24 -31.66601 -60.59295 33911 ft 436 kts 320°
2026-05-04 23:25 -31.61514 -60.63183 33882 ft 436 kts 320°
2026-05-04 23:25 -31.56451 -60.67030 33894 ft 436 kts 320°
2026-05-04 23:26 -31.51356 -60.70894 33905 ft 436 kts 320°
2026-05-04 23:26 -31.46262 -60.74754 33903 ft 435 kts 320°
2026-05-04 23:27 -31.41176 -60.78602 33881 ft 435 kts 320°
2026-05-04 23:27 -31.36101 -60.82438 33893 ft 433 kts 320°
2026-05-04 23:28 -31.31035 -60.86261 33894 ft 432 kts 320°
2026-05-04 23:28 -31.26014 -60.90048 33894 ft 432 kts 320°
2026-05-04 23:29 -31.20962 -60.93852 33874 ft 431 kts 320°
2026-05-04 23:29 -31.15930 -60.97635 33887 ft 430 kts 320°
2026-05-04 23:30 -31.10906 -61.01409 33894 ft 429 kts 320°
2026-05-04 23:30 -31.06726 -61.04546 33894 ft 429 kts 320°
2026-05-04 23:31 -31.01700 -61.08309 33893 ft 429 kts 320°
2026-05-04 23:31 -30.96668 -61.12063 33884 ft 429 kts 320°
2026-05-04 23:32 -30.91629 -61.15816 33896 ft 430 kts 320°
2026-05-04 23:32 -30.86586 -61.19571 33892 ft 430 kts 320°
2026-05-04 23:33 -30.81539 -61.23323 33889 ft 431 kts 320°
2026-05-04 23:33 -30.76516 -61.27054 33884 ft 431 kts 321°
2026-05-04 23:34 -30.71457 -61.30806 33890 ft 431 kts 321°
2026-05-04 23:34 -30.66386 -61.34563 33895 ft 432 kts 321°
2026-05-04 23:35 -30.61304 -61.38323 33889 ft 433 kts 321°
2026-05-04 23:35 -30.56249 -61.42058 33895 ft 433 kts 321°
2026-05-04 23:36 -30.51167 -61.45809 33886 ft 433 kts 321°
2026-05-04 23:36 -30.46087 -61.49553 33884 ft 433 kts 321°
2026-05-04 23:37 -30.40998 -61.53299 33887 ft 433 kts 321°
2026-05-04 23:37 -30.35911 -61.57039 33873 ft 432 kts 321°
2026-05-04 23:38 -30.30836 -61.60765 33878 ft 431 kts 321°
2026-05-04 23:38 -30.25762 -61.64487 33884 ft 431 kts 321°
2026-05-04 23:39 -30.20717 -61.68183 33885 ft 431 kts 321°
2026-05-04 23:39 -30.15641 -61.71897 33865 ft 431 kts 321°
2026-05-04 23:40 -30.10563 -61.75607 33880 ft 431 kts 321°
2026-05-04 23:40 -30.05515 -61.79292 33884 ft 432 kts 321°
2026-05-04 23:41 -30.00427 -61.83001 33886 ft 433 kts 321°
2026-05-04 23:41 -29.95334 -61.86710 33886 ft 433 kts 321°
2026-05-04 23:42 -29.90231 -61.90421 33879 ft 433 kts 321°
2026-05-04 23:42 -29.85403 -61.94503 33870 ft 425 kts 310°
2026-05-04 23:43 -29.81140 -61.99230 33878 ft 426 kts 310°
2026-05-04 23:43 -29.76880 -62.03942 33888 ft 427 kts 310°
2026-05-04 23:44 -29.72568 -62.08670 33859 ft 429 kts 311°
2026-05-04 23:44 -29.68238 -62.13397 33882 ft 429 kts 311°
2026-05-04 23:45 -29.63891 -62.18131 33877 ft 431 kts 311°
2026-05-04 23:45 -29.59564 -62.22838 33878 ft 431 kts 311°
2026-05-04 23:46 -29.55205 -62.27576 33877 ft 431 kts 311°
2026-05-04 23:46 -29.50842 -62.32311 33869 ft 432 kts 311°
2026-05-04 23:47 -29.46479 -62.37041 33877 ft 431 kts 311°
2026-05-04 23:47 -29.42110 -62.41771 33877 ft 432 kts 311°
2026-05-04 23:48 -29.37741 -62.46496 33874 ft 432 kts 311°
2026-05-04 23:48 -29.33359 -62.51229 33874 ft 432 kts 311°
2026-05-04 23:49 -29.28988 -62.55944 33868 ft 431 kts 311°
2026-05-04 23:49 -29.24643 -62.60625 33875 ft 431 kts 311°
2026-05-04 23:50 -29.20268 -62.65334 33870 ft 432 kts 311°
2026-05-04 23:50 -29.15888 -62.70041 33873 ft 432 kts 311°
2026-05-04 23:51 -29.11496 -62.74756 33853 ft 432 kts 311°
2026-05-04 23:51 -29.07108 -62.79462 33867 ft 432 kts 311°
2026-05-04 23:52 -29.02751 -62.84130 33877 ft 432 kts 311°
2026-05-04 23:52 -28.98357 -62.88830 33871 ft 433 kts 311°
2026-05-04 23:53 -28.93954 -62.93529 33870 ft 433 kts 311°
2026-05-04 23:53 -28.89543 -62.98231 33860 ft 433 kts 311°
2026-05-04 23:54 -28.85136 -63.02924 33866 ft 433 kts 311°
2026-05-04 23:54 -28.80724 -63.07617 33869 ft 433 kts 311°
2026-05-04 23:55 -28.76343 -63.12274 33868 ft 433 kts 311°
2026-05-04 23:56 -28.69725 -63.19295 33861 ft 433 kts 311°
2026-05-04 23:56 -28.65314 -63.23968 33866 ft 433 kts 311°
2026-05-04 23:57 -28.60909 -63.28630 33863 ft 432 kts 311°
2026-05-04 23:57 -28.56525 -63.33263 33863 ft 432 kts 311°
2026-05-04 23:58 -28.52115 -63.37920 33860 ft 432 kts 311°
2026-05-04 23:58 -28.47703 -63.42572 33861 ft 433 kts 311°
2026-05-04 23:59 -28.43290 -63.47219 33861 ft 432 kts 311°
2026-05-04 23:59 -28.38874 -63.51864 33858 ft 432 kts 311°
2026-05-05 00:00 -28.34457 -63.56505 33860 ft 432 kts 311°
2026-05-05 00:00 -28.30042 -63.61139 33863 ft 432 kts 311°
2026-05-05 00:01 -28.25622 -63.65772 33854 ft 432 kts 311°
2026-05-05 00:01 -28.21205 -63.70396 33857 ft 432 kts 311°
2026-05-05 00:02 -28.16781 -63.75024 33848 ft 433 kts 311°
2026-05-05 00:02 -28.12381 -63.79621 33856 ft 432 kts 311°
2026-05-05 00:03 -28.07949 -63.84245 33859 ft 433 kts 311°
2026-05-05 00:03 -28.03522 -63.88867 33835 ft 433 kts 311°
2026-05-05 00:04 -27.99103 -63.93491 33853 ft 432 kts 311°
2026-05-05 00:04 -27.94681 -63.98116 33860 ft 433 kts 311°
2026-05-05 00:05 -27.90284 -64.02708 33856 ft 433 kts 311°
2026-05-05 00:05 -27.85850 -64.07332 33863 ft 433 kts 311°
2026-05-05 00:06 -27.81415 -64.11952 33837 ft 433 kts 311°
2026-05-05 00:06 -27.76975 -64.16571 33852 ft 433 kts 311°
2026-05-05 00:07 -27.72538 -64.21181 33859 ft 433 kts 311°
2026-05-05 00:07 -27.68128 -64.25760 33856 ft 433 kts 311°
2026-05-05 00:08 -27.63695 -64.30356 33851 ft 433 kts 311°
2026-05-05 00:08 -27.59262 -64.34947 33855 ft 432 kts 311°
2026-05-05 00:09 -27.54831 -64.39531 33858 ft 432 kts 311°
2026-05-05 00:09 -27.50401 -64.44108 33855 ft 432 kts 311°
2026-05-05 00:10 -27.45977 -64.48675 33853 ft 431 kts 311°
2026-05-05 00:10 -27.41551 -64.53239 33858 ft 431 kts 311°
2026-05-05 00:11 -27.37162 -64.57761 33846 ft 430 kts 311°
2026-05-05 00:11 -27.32739 -64.62299 33855 ft 430 kts 311°
2026-05-05 00:12 -27.28294 -64.66800 33860 ft 430 kts 311°
2026-05-05 00:12 -27.23849 -64.71290 33862 ft 429 kts 311°
2026-05-05 00:13 -27.19406 -64.75779 33860 ft 430 kts 311°
2026-05-05 00:13 -27.14963 -64.80268 33860 ft 430 kts 311°
2026-05-05 00:14 -27.10514 -64.84759 33857 ft 430 kts 311°
2026-05-05 00:14 -27.06051 -64.89258 33867 ft 431 kts 311°
2026-05-05 00:15 -27.01580 -64.93760 33873 ft 432 kts 311°
2026-05-05 00:15 -26.97129 -64.98237 33886 ft 433 kts 311°
2026-05-05 00:16 -26.92642 -65.02746 33883 ft 433 kts 311°
2026-05-05 00:16 -26.88147 -65.07258 33875 ft 433 kts 311°
2026-05-05 00:17 -26.83652 -65.11753 33884 ft 433 kts 312°
2026-05-05 00:17 -26.78993 -65.16066 33887 ft 435 kts 314°
2026-05-05 00:18 -26.74268 -65.20313 33883 ft 435 kts 314°
2026-05-05 00:18 -26.69563 -65.24570 33890 ft 435 kts 314°
2026-05-05 00:19 -26.64908 -65.28808 33883 ft 434 kts 313°
2026-05-05 00:19 -26.60233 -65.33069 33904 ft 433 kts 314°
2026-05-05 00:20 -26.56353 -65.36603 33897 ft 432 kts 314°
2026-05-05 00:20 -26.51694 -65.40843 33906 ft 431 kts 314°
2026-05-05 00:21 -26.47049 -65.45063 33915 ft 429 kts 314°
2026-05-05 00:21 -26.42413 -65.49273 33901 ft 429 kts 314°
2026-05-05 00:22 -26.37783 -65.53480 33905 ft 428 kts 314°
2026-05-05 00:22 -26.33155 -65.57661 33923 ft 427 kts 314°
2026-05-05 00:23 -26.28559 -65.61813 33893 ft 428 kts 314°
2026-05-05 00:23 -26.23929 -65.66002 33949 ft 432 kts 315°
2026-05-05 00:24 -26.19208 -65.70202 33935 ft 434 kts 313°
2026-05-05 00:24 -26.14551 -65.74478 33925 ft 433 kts 314°
2026-05-05 00:25 -26.09875 -65.78694 33929 ft 431 kts 314°
2026-05-05 00:25 -26.05215 -65.82876 33919 ft 429 kts 314°
2026-05-05 00:26 -26.00583 -65.87035 33914 ft 427 kts 314°
2026-05-05 00:26 -25.95975 -65.91171 33912 ft 424 kts 314°
2026-05-05 00:27 -25.91422 -65.95256 33944 ft 423 kts 314°
2026-05-05 00:27 -25.86826 -65.99376 33928 ft 424 kts 314°
2026-05-05 00:28 -25.82228 -66.03493 33942 ft 424 kts 314°
2026-05-05 00:28 -25.77625 -66.07609 33937 ft 425 kts 314°
2026-05-05 00:29 -25.73043 -66.11699 33934 ft 426 kts 314°
2026-05-05 00:29 -25.68422 -66.15823 33935 ft 426 kts 314°
2026-05-05 00:30 -25.63794 -66.19948 33930 ft 427 kts 314°
2026-05-05 00:30 -25.59161 -66.24075 33931 ft 427 kts 314°
2026-05-05 00:31 -25.54546 -66.28211 33910 ft 423 kts 312°
2026-05-05 00:31 -25.52314 -66.30297 34030 ft 420 kts 314°
2026-05-05 00:31 -25.50020 -66.32316 33991 ft 423 kts 315°
2026-05-05 00:32 -25.45373 -66.36359 33942 ft 426 kts 315°
2026-05-05 00:32 -25.40765 -66.40397 34004 ft 423 kts 315°
2026-05-05 00:33 -25.36152 -66.44463 34040 ft 426 kts 315°
2026-05-05 00:33 -25.31524 -66.48552 34012 ft 423 kts 314°
2026-05-05 00:34 -25.26949 -66.52633 34116 ft 423 kts 314°
2026-05-05 00:34 -25.22378 -66.56714 34131 ft 427 kts 315°
2026-05-05 00:35 -25.17712 -66.60825 34102 ft 430 kts 315°
2026-05-05 00:35 -25.13026 -66.64956 34183 ft 432 kts 315°
2026-05-05 00:36 -25.08308 -66.69109 34154 ft 434 kts 315°
2026-05-05 00:36 -25.03621 -66.73222 34162 ft 426 kts 315°
2026-05-05 00:37 -24.99006 -66.77275 34183 ft 424 kts 315°
2026-05-05 00:37 -24.94423 -66.81302 34170 ft 423 kts 315°
2026-05-05 00:38 -24.89827 -66.85339 34176 ft 422 kts 315°
2026-05-05 00:38 -24.85227 -66.89380 34184 ft 423 kts 315°
2026-05-05 00:39 -24.80601 -66.93427 34174 ft 425 kts 315°
2026-05-05 00:39 -24.75960 -66.97485 34164 ft 426 kts 315°
2026-05-05 00:40 -24.71307 -67.01550 34145 ft 426 kts 315°
2026-05-05 00:40 -24.66668 -67.05600 34157 ft 426 kts 315°
2026-05-05 00:41 -24.62057 -67.09622 34160 ft 426 kts 315°
2026-05-05 00:41 -24.57416 -67.13667 34157 ft 426 kts 315°
2026-05-05 00:42 -24.52770 -67.17712 34155 ft 426 kts 315°
2026-05-05 00:42 -24.48129 -67.21748 34149 ft 425 kts 316°
2026-05-05 00:43 -24.43499 -67.25777 34187 ft 423 kts 316°
2026-05-05 00:43 -24.38886 -67.29781 34150 ft 425 kts 316°
2026-05-05 00:44 -24.34250 -67.33797 34163 ft 425 kts 316°
2026-05-05 00:44 -24.29612 -67.37815 34168 ft 424 kts 316°
2026-05-05 00:45 -24.24974 -67.41831 34192 ft 424 kts 316°
2026-05-05 00:45 -24.20347 -67.45833 34218 ft 423 kts 316°
2026-05-05 00:46 -24.15713 -67.49838 34198 ft 424 kts 316°
2026-05-05 00:46 -24.11066 -67.53848 34221 ft 426 kts 316°
2026-05-05 00:47 -24.06404 -67.57798 34224 ft 427 kts 317°
2026-05-05 00:47 -24.01675 -67.61767 34230 ft 428 kts 317°
2026-05-05 00:48 -23.96944 -67.65743 34244 ft 429 kts 317°
2026-05-05 00:48 -23.92211 -67.69727 34196 ft 429 kts 317°
2026-05-05 00:49 -23.87477 -67.73703 34222 ft 428 kts 317°
2026-05-05 00:49 -23.82777 -67.77654 34218 ft 429 kts 317°
2026-05-05 00:50 -23.78033 -67.81637 34151 ft 431 kts 317°
2026-05-05 00:50 -23.73264 -67.85636 34126 ft 433 kts 317°
2026-05-05 00:51 -23.68487 -67.89636 34124 ft 433 kts 317°
2026-05-05 00:51 -23.63706 -67.93637 34063 ft 433 kts 317°
2026-05-05 00:52 -23.58925 -67.97635 34042 ft 433 kts 317°
2026-05-05 00:52 -23.54147 -68.01626 34049 ft 432 kts 317°
2026-05-05 00:53 -23.49370 -68.05612 34041 ft 432 kts 317°
2026-05-05 00:53 -23.44603 -68.09586 34042 ft 431 kts 317°
2026-05-05 00:54 -23.39845 -68.13550 34031 ft 430 kts 318°
2026-05-05 00:54 -23.35097 -68.17501 34043 ft 430 kts 318°
2026-05-05 00:55 -23.30348 -68.21451 34001 ft 430 kts 318°
2026-05-05 00:55 -23.25628 -68.25372 33993 ft 430 kts 318°
2026-05-05 00:56 -23.20873 -68.29318 33994 ft 430 kts 318°
2026-05-05 00:56 -23.16112 -68.33266 33986 ft 430 kts 318°
2026-05-05 00:57 -23.11353 -68.37206 33983 ft 430 kts 318°
2026-05-05 00:57 -23.06593 -68.41149 34011 ft 431 kts 318°
2026-05-05 00:58 -23.01817 -68.45100 34005 ft 432 kts 318°
2026-05-05 00:58 -22.97063 -68.49028 34034 ft 432 kts 318°
2026-05-05 00:59 -22.92266 -68.52985 34039 ft 432 kts 318°
2026-05-05 00:59 -22.87467 -68.56941 34042 ft 434 kts 318°
2026-05-05 01:00 -22.82653 -68.60906 34059 ft 435 kts 318°
2026-05-05 01:00 -22.77828 -68.64877 34060 ft 436 kts 318°
2026-05-05 01:01 -22.72994 -68.68852 34134 ft 436 kts 318°
2026-05-05 01:01 -22.68177 -68.72809 34179 ft 437 kts 318°
2026-05-05 01:02 -22.63340 -68.76779 34249 ft 436 kts 318°
2026-05-05 01:02 -22.58505 -68.80745 34323 ft 436 kts 319°
2026-05-05 01:03 -22.53674 -68.84705 34370 ft 435 kts 319°
2026-05-05 01:03 -22.48850 -68.88678 34061 ft 435 kts 317°
2026-05-05 01:04 -22.44176 -68.92841 34058 ft 435 kts 316°
2026-05-05 01:04 -22.37261 -68.99136 34047 ft 435 kts 316°
2026-05-05 01:05 -22.32616 -69.03323 34042 ft 435 kts 316°
2026-05-05 01:05 -22.27958 -69.07499 34037 ft 435 kts 316°
2026-05-05 01:06 -22.23286 -69.11679 34034 ft 436 kts 316°
2026-05-05 01:06 -22.18611 -69.15857 34022 ft 436 kts 316°
2026-05-05 01:07 -22.14730 -69.19323 34026 ft 436 kts 316°
2026-05-05 01:07 -22.10062 -69.23489 34032 ft 435 kts 315°
2026-05-05 01:08 -22.05402 -69.27644 33982 ft 434 kts 316°
2026-05-05 01:08 -22.00756 -69.31783 33997 ft 433 kts 316°
2026-05-05 01:09 -21.96115 -69.35915 34011 ft 432 kts 316°
2026-05-05 01:09 -21.91486 -69.40032 33984 ft 431 kts 316°
2026-05-05 01:10 -21.86894 -69.44113 33990 ft 430 kts 316°
2026-05-05 01:10 -21.82279 -69.48210 34004 ft 430 kts 316°
2026-05-05 01:11 -21.77656 -69.52312 33988 ft 430 kts 316°
2026-05-05 01:11 -21.73034 -69.56409 34014 ft 431 kts 316°
2026-05-05 01:12 -21.68402 -69.60511 33995 ft 431 kts 316°
2026-05-05 01:12 -21.63767 -69.64613 34009 ft 432 kts 316°
2026-05-05 01:13 -21.59122 -69.68719 34010 ft 433 kts 316°
2026-05-05 01:13 -21.54461 -69.72836 34026 ft 433 kts 316°
2026-05-05 01:14 -21.49802 -69.76948 34006 ft 434 kts 316°
2026-05-05 01:14 -21.45132 -69.81066 34029 ft 434 kts 316°
2026-05-05 01:15 -21.40453 -69.85189 34031 ft 435 kts 316°
2026-05-05 01:15 -21.35803 -69.89281 34031 ft 435 kts 316°
2026-05-05 01:16 -21.31119 -69.93400 34032 ft 435 kts 316°
2026-05-05 01:16 -21.26440 -69.97513 34027 ft 435 kts 316°
2026-05-05 01:17 -21.21765 -70.01617 34027 ft 434 kts 316°
2026-05-05 01:17 -21.17095 -70.05715 34039 ft 434 kts 316°
2026-05-05 01:18 -21.12422 -70.09812 34030 ft 434 kts 316°
2026-05-05 01:18 -21.07754 -70.13902 34028 ft 434 kts 316°
2026-05-05 01:19 -21.03107 -70.17969 34033 ft 433 kts 316°
2026-05-05 01:19 -20.98445 -70.22046 34032 ft 432 kts 317°
2026-05-05 01:20 -20.93788 -70.26111 34027 ft 432 kts 317°
2026-05-05 01:20 -20.89125 -70.30178 34030 ft 431 kts 317°
2026-05-05 01:21 -20.84472 -70.34235 34027 ft 431 kts 317°
2026-05-05 01:21 -20.79823 -70.38285 34026 ft 431 kts 317°
2026-05-05 01:22 -20.75194 -70.42315 34027 ft 431 kts 317°
2026-05-05 01:22 -20.70539 -70.46365 34029 ft 431 kts 317°
2026-05-05 01:23 -20.65891 -70.50406 34017 ft 431 kts 317°
2026-05-05 01:23 -20.61232 -70.54452 34031 ft 431 kts 317°
2026-05-05 01:24 -20.56576 -70.58494 34024 ft 431 kts 317°
2026-05-05 01:24 -20.51920 -70.62537 34026 ft 432 kts 317°
2026-05-05 01:25 -20.47283 -70.66559 34024 ft 432 kts 317°
2026-05-05 01:25 -20.42613 -70.70608 34024 ft 432 kts 317°
2026-05-05 01:26 -20.37952 -70.74645 34027 ft 432 kts 317°
2026-05-05 01:26 -20.33288 -70.78676 34020 ft 431 kts 318°
2026-05-05 01:27 -20.28628 -70.82698 34025 ft 431 kts 318°
2026-05-05 01:27 -20.23959 -70.86725 34025 ft 431 kts 318°
2026-05-05 01:28 -20.19327 -70.90719 34031 ft 431 kts 318°
2026-05-05 01:28 -20.14659 -70.94741 34024 ft 431 kts 318°
2026-05-05 01:29 -20.09999 -70.98752 34022 ft 431 kts 318°
2026-05-05 01:29 -20.05342 -71.02758 34017 ft 430 kts 318°
2026-05-05 01:30 -20.00691 -71.06756 34027 ft 430 kts 318°
2026-05-05 01:30 -19.96033 -71.10757 34026 ft 430 kts 318°
2026-05-05 01:31 -19.91378 -71.14752 34024 ft 430 kts 318°
2026-05-05 01:31 -19.86759 -71.18714 34026 ft 430 kts 318°
2026-05-05 01:32 -19.82102 -71.22704 34029 ft 430 kts 318°
2026-05-05 01:32 -19.77440 -71.26695 34016 ft 430 kts 318°
2026-05-05 01:33 -19.72776 -71.30686 34026 ft 430 kts 318°
2026-05-05 01:33 -19.68111 -71.34674 34027 ft 431 kts 318°
2026-05-05 01:34 -19.63440 -71.38664 34026 ft 431 kts 318°
2026-05-05 01:34 -19.58793 -71.42631 34029 ft 431 kts 318°
2026-05-05 01:35 -19.54106 -71.46629 34028 ft 432 kts 318°
2026-05-05 01:35 -19.49422 -71.50620 34019 ft 432 kts 319°
2026-05-05 01:36 -19.44724 -71.54621 34026 ft 432 kts 319°
2026-05-05 01:36 -19.40059 -71.58591 34027 ft 432 kts 319°
2026-05-05 01:37 -19.35367 -71.62581 34024 ft 432 kts 319°
2026-05-05 01:37 -19.30678 -71.66564 34028 ft 431 kts 319°
2026-05-05 01:38 -19.25999 -71.70537 34027 ft 431 kts 319°
2026-05-05 01:38 -19.21348 -71.74483 34026 ft 430 kts 319°
2026-05-05 01:39 -19.16677 -71.78442 34023 ft 430 kts 319°
2026-05-05 01:39 -19.12011 -71.82396 34027 ft 430 kts 319°
2026-05-05 01:40 -19.07337 -71.86352 34034 ft 430 kts 319°
2026-05-05 01:40 -19.02666 -71.90304 34029 ft 430 kts 319°
2026-05-05 01:41 -18.97989 -71.94256 34030 ft 430 kts 319°
2026-05-05 01:41 -18.93315 -71.98204 34033 ft 430 kts 319°
2026-05-05 01:42 -18.88635 -72.02154 34015 ft 430 kts 319°
2026-05-05 01:42 -18.83980 -72.06080 34029 ft 430 kts 319°
2026-05-05 01:43 -18.79299 -72.10025 34027 ft 431 kts 319°
2026-05-05 01:43 -18.74611 -72.13973 34023 ft 431 kts 319°
2026-05-05 01:44 -18.69921 -72.17920 34026 ft 431 kts 320°
2026-05-05 01:44 -18.65229 -72.21865 34024 ft 431 kts 320°
2026-05-05 01:45 -18.60531 -72.25813 34023 ft 431 kts 320°
2026-05-05 01:45 -18.55835 -72.29757 34023 ft 431 kts 320°
2026-05-05 01:46 -18.51136 -72.33700 34030 ft 431 kts 320°
2026-05-05 01:46 -18.46441 -72.37637 34029 ft 431 kts 320°
2026-05-05 01:47 -18.41773 -72.41549 34027 ft 431 kts 320°
2026-05-05 01:47 -18.37079 -72.45481 34027 ft 431 kts 320°
2026-05-05 01:48 -18.32382 -72.49410 34030 ft 431 kts 320°
2026-05-05 01:48 -18.27690 -72.53334 34018 ft 431 kts 320°
2026-05-05 01:49 -18.22995 -72.57259 34030 ft 431 kts 320°
2026-05-05 01:49 -18.18303 -72.61181 34042 ft 431 kts 320°
2026-05-05 01:50 -18.13607 -72.65102 34029 ft 431 kts 320°
2026-05-05 01:50 -18.08904 -72.69026 34030 ft 431 kts 320°
2026-05-05 01:51 -18.04237 -72.72918 34030 ft 430 kts 320°
2026-05-05 01:51 -17.99547 -72.76827 34029 ft 430 kts 320°
2026-05-05 01:52 -17.94859 -72.80730 34030 ft 430 kts 320°
2026-05-05 01:52 -17.90168 -72.84634 34030 ft 429 kts 320°
2026-05-05 01:53 -17.86280 -72.87867 34030 ft 429 kts 320°
2026-05-05 01:53 -17.80836 -72.92392 34030 ft 429 kts 320°
2026-05-05 01:54 -17.76153 -72.96281 34036 ft 429 kts 320°
2026-05-05 01:54 -17.72234 -72.99533 34030 ft 428 kts 320°
2026-05-05 01:55 -17.67590 -73.03384 34013 ft 428 kts 320°
2026-05-05 01:55 -17.62915 -73.07260 34027 ft 428 kts 320°
2026-05-05 01:56 -17.58238 -73.11133 34033 ft 428 kts 320°
2026-05-05 01:56 -17.53560 -73.15005 34030 ft 429 kts 320°
2026-05-05 01:57 -17.48880 -73.18877 34030 ft 429 kts 320°
2026-05-05 01:57 -17.44190 -73.22753 34030 ft 429 kts 320°
2026-05-05 01:58 -17.39521 -73.26610 34030 ft 430 kts 320°
2026-05-05 01:58 -17.34827 -73.30485 34027 ft 430 kts 320°
2026-05-05 01:59 -17.30128 -73.34362 34029 ft 430 kts 320°
2026-05-05 01:59 -17.25421 -73.38241 34030 ft 430 kts 320°
2026-05-05 02:00 -17.20717 -73.42117 34035 ft 430 kts 320°
2026-05-05 02:00 -17.16020 -73.45984 34032 ft 429 kts 320°
2026-05-05 02:01 -17.11328 -73.49844 34030 ft 429 kts 320°
2026-05-05 02:01 -17.06665 -73.53678 34030 ft 429 kts 320°
2026-05-05 02:02 -17.01970 -73.57535 34028 ft 429 kts 320°
2026-05-05 02:02 -16.97277 -73.61390 34031 ft 429 kts 320°
2026-05-05 02:03 -16.92599 -73.65228 34038 ft 430 kts 320°
2026-05-05 02:03 -16.87882 -73.69096 34034 ft 431 kts 321°
2026-05-05 02:04 -16.83165 -73.72963 34030 ft 431 kts 321°
2026-05-05 02:04 -16.78440 -73.76832 34029 ft 431 kts 321°
2026-05-05 02:05 -16.73716 -73.80699 34021 ft 431 kts 321°
2026-05-05 02:05 -16.68989 -73.84565 34032 ft 432 kts 321°
2026-05-05 02:06 -16.64262 -73.88430 34029 ft 432 kts 321°
2026-05-05 02:06 -16.59561 -73.92272 34029 ft 432 kts 321°
2026-05-05 02:07 -16.54821 -73.96140 34028 ft 433 kts 321°
2026-05-05 02:07 -16.50072 -74.00010 34027 ft 433 kts 321°
2026-05-05 02:08 -16.45327 -74.03874 34029 ft 433 kts 321°
2026-05-05 02:08 -16.40581 -74.07739 34018 ft 433 kts 321°
2026-05-05 02:09 -16.35840 -74.11597 34028 ft 432 kts 321°
2026-05-05 02:09 -16.31127 -74.15431 34028 ft 433 kts 321°
2026-05-05 02:10 -16.26380 -74.19288 34028 ft 433 kts 321°
2026-05-05 02:10 -16.21630 -74.23148 34028 ft 433 kts 321°
2026-05-05 02:11 -16.16880 -74.27004 34027 ft 433 kts 321°
2026-05-05 02:11 -16.12125 -74.30861 34028 ft 433 kts 321°
2026-05-05 02:12 -16.04977 -74.36655 34038 ft 435 kts 321°
2026-05-05 02:13 -16.00203 -74.40523 34032 ft 436 kts 322°
2026-05-05 02:13 -15.95440 -74.44378 34030 ft 436 kts 322°
2026-05-05 02:14 -15.90644 -74.48259 34027 ft 437 kts 322°
2026-05-05 02:14 -15.85850 -74.52134 34031 ft 437 kts 322°
2026-05-05 02:15 -15.81056 -74.56008 34029 ft 437 kts 322°
2026-05-05 02:15 -15.76256 -74.59884 34023 ft 437 kts 322°
2026-05-05 02:16 -15.71457 -74.63757 34033 ft 437 kts 322°
2026-05-05 02:16 -15.66651 -74.67633 34027 ft 437 kts 322°
2026-05-05 02:17 -15.61849 -74.71503 34030 ft 437 kts 322°
2026-05-05 02:17 -15.57073 -74.75351 34031 ft 438 kts 322°
2026-05-05 02:18 -15.52257 -74.79227 34033 ft 438 kts 322°
2026-05-05 02:18 -15.47443 -74.83100 34030 ft 438 kts 322°
2026-05-05 02:19 -15.42614 -74.86984 34031 ft 439 kts 322°
2026-05-05 02:19 -15.37773 -74.90873 34038 ft 441 kts 322°
2026-05-05 02:20 -15.32917 -74.94773 34037 ft 442 kts 322°
2026-05-05 02:20 -15.28049 -74.98681 34035 ft 443 kts 322°
2026-05-05 02:21 -15.23163 -75.02600 34040 ft 444 kts 322°
2026-05-05 02:21 -15.18304 -75.06495 34040 ft 445 kts 323°
2026-05-05 02:22 -15.13402 -75.10422 34023 ft 445 kts 323°
2026-05-05 02:22 -15.08496 -75.14350 34031 ft 446 kts 323°
2026-05-05 02:23 -15.03586 -75.18279 34035 ft 447 kts 323°
2026-05-05 02:23 -14.98663 -75.22217 34025 ft 447 kts 323°
2026-05-05 02:24 -14.93730 -75.26159 34026 ft 448 kts 323°
2026-05-05 02:24 -14.88788 -75.30106 34024 ft 449 kts 323°
2026-05-05 02:25 -14.83849 -75.34049 34024 ft 449 kts 323°
2026-05-05 02:25 -14.78905 -75.37994 34016 ft 448 kts 323°
2026-05-05 02:26 -14.73967 -75.41931 34019 ft 448 kts 323°
2026-05-05 02:26 -14.69039 -75.45858 34024 ft 447 kts 323°
2026-05-05 02:27 -14.64144 -75.49757 34009 ft 446 kts 323°
2026-05-05 02:27 -14.59234 -75.53665 34011 ft 445 kts 323°
2026-05-05 02:28 -14.54337 -75.57560 34013 ft 444 kts 323°
2026-05-05 02:28 -14.49443 -75.61452 34015 ft 443 kts 323°
2026-05-05 02:29 -14.44552 -75.65338 34008 ft 443 kts 323°
2026-05-05 02:29 -14.39666 -75.69217 34014 ft 444 kts 323°
2026-05-05 02:30 -14.34766 -75.73107 34011 ft 445 kts 323°
2026-05-05 02:30 -14.29880 -75.76983 34017 ft 446 kts 323°
2026-05-05 02:31 -14.24960 -75.80883 34012 ft 447 kts 323°
2026-05-05 02:31 -14.20029 -75.84790 34007 ft 447 kts 323°
2026-05-05 02:32 -14.15096 -75.88697 34003 ft 447 kts 323°
2026-05-05 02:32 -14.10154 -75.92607 34002 ft 448 kts 323°
2026-05-05 02:33 -14.05207 -75.96521 33995 ft 448 kts 323°
2026-05-05 02:33 -14.00289 -76.00409 33998 ft 448 kts 323°
2026-05-05 02:34 -13.95337 -76.04322 33991 ft 449 kts 323°
2026-05-05 02:34 -13.90379 -76.08238 33993 ft 449 kts 323°
2026-05-05 02:35 -13.85421 -76.12152 33994 ft 449 kts 323°
2026-05-05 02:35 -13.80459 -76.16067 33990 ft 449 kts 324°
2026-05-05 02:36 -13.75487 -76.19975 33995 ft 449 kts 326°
2026-05-05 02:36 -13.69992 -76.22957 34001 ft 447 kts 339°
2026-05-05 02:37 -13.64184 -76.25245 33994 ft 447 kts 340°
2026-05-05 02:37 -13.58415 -76.27525 33989 ft 447 kts 339°
2026-05-05 02:38 -13.52602 -76.29855 33992 ft 447 kts 339°
2026-05-05 02:38 -13.46801 -76.32195 33990 ft 448 kts 339°
2026-05-05 02:39 -13.41002 -76.34536 33987 ft 448 kts 339°
2026-05-05 02:39 -13.35191 -76.36879 33991 ft 448 kts 339°
2026-05-05 02:40 -13.29421 -76.39204 33923 ft 449 kts 339°
2026-05-05 02:40 -13.26484 -76.40386 33268 ft 455 kts 339°
2026-05-05 02:40 -13.23544 -76.41570 32582 ft 453 kts 339°
2026-05-05 02:40 -13.20608 -76.42752 31858 ft 454 kts 339°
2026-05-05 02:41 -13.17662 -76.43937 31097 ft 455 kts 339°
2026-05-05 02:41 -13.14704 -76.45127 30291 ft 458 kts 339°
2026-05-05 02:41 -13.11723 -76.46326 29374 ft 462 kts 339°
2026-05-05 02:41 -13.09712 -76.47135 28976 ft 458 kts 339°
2026-05-05 02:42 -13.06792 -76.48310 28339 ft 454 kts 339°
2026-05-05 02:42 -13.03825 -76.49502 27715 ft 450 kts 339°
2026-05-05 02:42 -13.00954 -76.50656 27115 ft 447 kts 339°
2026-05-05 02:42 -12.98070 -76.51815 26524 ft 444 kts 339°
2026-05-05 02:43 -12.95204 -76.52966 25918 ft 441 kts 339°
2026-05-05 02:43 -12.92348 -76.54113 25310 ft 439 kts 340°
2026-05-05 02:43 -12.89509 -76.55253 24713 ft 438 kts 340°
2026-05-05 02:43 -12.86680 -76.56388 24116 ft 436 kts 340°
2026-05-05 02:44 -12.83857 -76.57521 23514 ft 435 kts 340°
2026-05-05 02:44 -12.81038 -76.58652 22823 ft 434 kts 340°
2026-05-05 02:44 -12.78258 -76.59821 22218 ft 431 kts 334°
2026-05-05 02:44 -12.75848 -76.61642 21630 ft 431 kts 315°
2026-05-05 02:45 -12.74077 -76.64105 21076 ft 429 kts 300°
2026-05-05 02:45 -12.72659 -76.66790 20521 ft 426 kts 299°
2026-05-05 02:45 -12.71286 -76.69470 19947 ft 424 kts 298°
2026-05-05 02:45 -12.69919 -76.72136 19406 ft 421 kts 299°
2026-05-05 02:46 -12.68549 -76.74775 18894 ft 418 kts 299°
2026-05-05 02:46 -12.67179 -76.77384 18401 ft 414 kts 300°
2026-05-05 02:46 -12.65812 -76.79967 17840 ft 411 kts 300°
2026-05-05 02:46 -12.64454 -76.82523 17355 ft 406 kts 300°
2026-05-05 02:47 -12.63125 -76.85024 17184 ft 393 kts 300°
2026-05-05 02:47 -12.61843 -76.87434 17088 ft 379 kts 300°
2026-05-05 02:47 -12.60604 -76.89765 17004 ft 366 kts 300°
2026-05-05 02:47 -12.59408 -76.92013 16909 ft 353 kts 300°
2026-05-05 02:48 -12.58218 -76.94136 16797 ft 342 kts 308°
2026-05-05 02:48 -12.56534 -76.95778 16610 ft 331 kts 329°
2026-05-05 02:48 -12.54527 -76.96886 16343 ft 326 kts 335°
2026-05-05 02:48 -12.52486 -76.97893 15961 ft 326 kts 336°
2026-05-05 02:49 -12.50438 -76.98880 15595 ft 325 kts 335°
2026-05-05 02:49 -12.48390 -76.99870 15263 ft 324 kts 335°
2026-05-05 02:49 -12.46362 -77.00858 14956 ft 322 kts 335°
2026-05-05 02:49 -12.44346 -77.01847 14643 ft 321 kts 334°
2026-05-05 02:50 -12.42339 -77.02837 14337 ft 319 kts 334°
2026-05-05 02:50 -12.40342 -77.03825 14016 ft 318 kts 334°
2026-05-05 02:50 -12.38376 -77.04800 13695 ft 317 kts 334°
2026-05-05 02:50 -12.36398 -77.05782 13380 ft 315 kts 334°
2026-05-05 02:51 -12.34434 -77.06757 13076 ft 312 kts 334°
2026-05-05 02:51 -12.32485 -77.07725 12759 ft 310 kts 334°
2026-05-05 02:51 -12.30549 -77.08687 12437 ft 308 kts 334°
2026-05-05 02:51 -12.28626 -77.09642 12137 ft 306 kts 334°
2026-05-05 02:52 -12.26707 -77.10594 11823 ft 305 kts 334°
2026-05-05 02:52 -12.24807 -77.11538 11535 ft 302 kts 334°
2026-05-05 02:52 -12.22923 -77.12473 11234 ft 301 kts 334°
2026-05-05 02:52 -12.21047 -77.13404 10977 ft 297 kts 334°
2026-05-05 02:53 -12.19210 -77.14316 10859 ft 289 kts 334°
2026-05-05 02:53 -12.17415 -77.15207 10647 ft 285 kts 334°
2026-05-05 02:53 -12.15656 -77.16080 10364 ft 284 kts 334°
2026-05-05 02:53 -12.13880 -77.16961 10094 ft 283 kts 334°
2026-05-05 02:54 -12.12110 -77.17839 9818 ft 282 kts 334°
2026-05-05 02:54 -12.10357 -77.18707 9598 ft 277 kts 334°
2026-05-05 02:54 -12.08644 -77.19557 9455 ft 270 kts 334°
2026-05-05 02:54 -12.06965 -77.20390 9221 ft 267 kts 334°
2026-05-05 02:55 -12.05294 -77.21218 8924 ft 267 kts 334°
2026-05-05 02:55 -12.03625 -77.22046 8660 ft 266 kts 334°
2026-05-05 02:55 -12.01963 -77.22869 8411 ft 262 kts 334°
2026-05-05 02:55 -12.00363 -77.23685 8313 ft 254 kts 333°
2026-05-05 02:56 -11.98771 -77.24518 7930 ft 259 kts 333°
2026-05-05 02:56 -11.97168 -77.25357 7668 ft 257 kts 333°
2026-05-05 02:56 -11.95574 -77.26190 7383 ft 258 kts 333°
2026-05-05 02:56 -11.93983 -77.27021 7117 ft 257 kts 333°
2026-05-05 02:57 -11.92395 -77.27847 6879 ft 255 kts 334°
2026-05-05 02:57 -11.90805 -77.28641 6620 ft 254 kts 334°
2026-05-05 02:57 -11.89211 -77.29422 6367 ft 254 kts 334°
2026-05-05 02:57 -11.87623 -77.30200 6121 ft 252 kts 334°
2026-05-05 02:58 -11.85991 -77.30733 5832 ft 251 kts 358°
2026-05-05 02:58 -11.84302 -77.30364 5556 ft 251 kts 27°
2026-05-05 02:58 -11.82975 -77.29229 5355 ft 249 kts 52°
2026-05-05 02:58 -11.82115 -77.27733 5260 ft 241 kts 62°
2026-05-05 02:59 -11.81400 -77.26215 5159 ft 234 kts 66°
2026-05-05 02:59 -11.81154 -77.24606 4965 ft 233 kts 102°
2026-05-05 02:59 -11.81940 -77.23250 4910 ft 219 kts 140°
2026-05-05 02:59 -11.83170 -77.22382 4761 ft 211 kts 146°
2026-05-05 03:00 -11.84373 -77.21582 4585 ft 203 kts 149°
2026-05-05 03:00 -11.85603 -77.20879 4298 ft 202 kts 153°
2026-05-05 03:00 -11.86858 -77.20236 3954 ft 203 kts 154°
2026-05-05 03:00 -11.88135 -77.19601 3500 ft 204 kts 154°
2026-05-05 03:01 -11.89420 -77.18964 2993 ft 206 kts 154°
2026-05-05 03:01 -11.90684 -77.18336 2507 ft 202 kts 154°
2026-05-05 03:01 -11.91928 -77.17719 2089 ft 195 kts 154°
2026-05-05 03:01 -11.93108 -77.17132 1796 ft 183 kts 154°
2026-05-05 03:02 -11.94217 -77.16581 1565 ft 172 kts 154°
2026-05-05 03:02 -11.95259 -77.16064 1354 ft 159 kts 154°
2026-05-05 03:02 -11.96231 -77.15581 1134 ft 155 kts 154°
2026-05-05 03:02 -11.97194 -77.15103 919 ft 153 kts 154°
2026-05-05 03:03 -11.98152 -77.14628 718 ft 152 kts 154°
2026-05-05 03:03 -11.99101 -77.14155 518 ft 152 kts 154°
2026-05-05 03:03 -12.00049 -77.13685 314 ft 151 kts 155°
2026-05-05 03:03 -12.00982 -77.13217 117 ft 147 kts 154°
2026-05-05 03:04 -12.01877 -77.12780 42 ft 130 kts 154°
2026-05-05 03:04 -12.02553 -77.12445 49 ft 86 kts 154°
2026-05-05 03:04 -12.02951 -77.12250 53 ft 42 kts 155°
2026-05-05 03:04 -12.03198 -77.12129 65 ft 37 kts 154°
2026-05-05 03:05 -12.03343 -77.12058 68 ft 19 kts 154°
2026-05-05 03:05 -12.03457 -77.12002 69 ft 13 kts 152°
2026-05-05 03:05 -12.03475 -77.11935 66 ft 9 kts 65°
2026-05-05 03:05 -12.03446 -77.11874 67 ft 10 kts 64°
2026-05-05 03:06 -12.03390 -77.11857 65 ft 10 kts 336°
2026-05-05 03:06 -12.03331 -77.11886 69 ft 9 kts 333°
2026-05-05 03:06 -12.03273 -77.11915 66 ft 9 kts 333°
2026-05-05 03:06 -12.03216 -77.11942 65 ft 9 kts 335°
2026-05-05 03:07 -12.03153 -77.11974 62 ft 10 kts 334°
2026-05-05 03:07 -12.03090 -77.12005 69 ft 10 kts 334°
2026-05-05 03:07 -12.03023 -77.12038 65 ft 11 kts 334°
2026-05-05 03:07 -12.02952 -77.12074 64 ft 12 kts 334°
2026-05-05 03:08 -12.02880 -77.12110 63 ft 12 kts 334°
2026-05-05 03:08 -12.02808 -77.12146 65 ft 11 kts 334°
2026-05-05 03:08 -12.02737 -77.12180 59 ft 11 kts 335°
2026-05-05 03:08 -12.02666 -77.12215 59 ft 12 kts 334°
2026-05-05 03:09 -12.02587 -77.12253 58 ft 13 kts 334°
2026-05-05 03:09 -12.02500 -77.12297 53 ft 15 kts 334°
2026-05-05 03:09 -12.02403 -77.12344 54 ft 16 kts 334°
2026-05-05 03:09 -12.02312 -77.12388 50 ft 14 kts 334°
2026-05-05 03:10 -12.02240 -77.12420 48 ft 6 kts 357°
2026-05-05 03:10 -12.02210 -77.12398 48 ft 6 kts 62°
2026-05-05 03:10 -12.02193 -77.12362 51 ft 6 kts 64°
2026-05-05 03:10 -12.02176 -77.12327 50 ft 5 kts 64°
2026-05-05 03:11 -12.02156 -77.12285 51 ft 8 kts 64°
2026-05-05 03:11 -12.02124 -77.12217 57 ft 13 kts 64°
2026-05-05 03:11 -12.02080 -77.12127 62 ft 15 kts 64°
2026-05-05 03:11 -12.02037 -77.12035 57 ft 14 kts 64°
2026-05-05 03:12 -12.01994 -77.11947 64 ft 14 kts 64°
2026-05-05 03:12 -12.01954 -77.11863 61 ft 13 kts 64°
2026-05-05 03:12 -12.01917 -77.11787 65 ft 7 kts 63°
2026-05-05 03:12 -12.01917 -77.11744 66 ft 7 kts 130°
2026-05-05 03:13 -12.01957 -77.11721 64 ft 7 kts 154°
2026-05-05 03:13 -12.02003 -77.11698 69 ft 8 kts 154°
2026-05-05 03:13 -12.02057 -77.11671 64 ft 9 kts 154°
2026-05-05 03:13 -12.02117 -77.11641 67 ft 10 kts 154°
2026-05-05 03:14 -12.02180 -77.11611 72 ft 11 kts 155°
2026-05-05 03:14 -12.02246 -77.11579 74 ft 10 kts 155°
2026-05-05 03:14 -12.02317 -77.11543 73 ft 13 kts 155°
2026-05-05 03:14 -12.02398 -77.11504 72 ft 13 kts 154°
2026-05-05 03:15 -12.02482 -77.11463 81 ft 13 kts 154°
2026-05-05 03:15 -12.02554 -77.11427 82 ft 7 kts 150°
2026-05-05 03:15 -12.02566 -77.11385 83 ft 7 kts 73°
2026-05-05 03:15 -12.02546 -77.11343 87 ft 6 kts 63°
2026-05-05 03:16 -12.02526 -77.11302 90 ft 7 kts 63°
2026-05-05 03:16 -12.02501 -77.11250 89 ft 10 kts 63°
2026-05-05 03:16 -12.02465 -77.11175 90 ft 13 kts 64°
2026-05-05 03:16 -12.02444 -77.11112 89 ft 6 kts 101°
2026-05-05 03:17 -12.02466 -77.11074 90 ft 6 kts 123°
2026-05-05 03:17 -12.02488 -77.11037 93 ft 6 kts 120°
2026-05-05 03:17 -12.02512 -77.10994 93 ft 8 kts 120°
2026-05-05 03:17 -12.02555 -77.10949 91 ft 10 kts 153°
2026-05-05 03:18 -12.02625 -77.10916 91 ft 12 kts 154°
2026-05-05 03:18 -12.02704 -77.10877 91 ft 13 kts 154°
2026-05-05 03:18 -12.02789 -77.10834 93 ft 14 kts 153°
2026-05-05 03:18 -12.02854 -77.10804 93 ft 9 kts 166°
2026-05-05 03:19 -12.02961 -77.10806 97 ft 6 kts 120°
2026-05-05 03:19 -12.02949 -77.10771 96 ft 5 kts 60°
2026-05-05 03:19 -12.02934 -77.10747 95 ft 2 kts 62°
2026-05-05 03:20 -12.02927 -77.10731 94 ft 1 kts 64°
2026-05-05 03:20 -12.02926 -77.10729 94 ft 0 kts 64°